sat.trackr.live / text

‹ back to catalog

STARLINK-2159

NORAD 47745 · 2021-017Z

PAYLOAD ACTIVE UNKNOWN

§ Identity

Operator
Country
US
Launch date
2021-03-04
Launch site
AFETR
Launch vehicle
Mass (kg)
RCS (m²)

Purposes: comms

External: N2YO · Heavens-Above · Gunter

§ Orbital elements

Epoch: 2026-09-04T22:27:00.844416Z

Period
87.69 min
Inclination
53.1318°
Eccentricity
0.0012340
Mean motion
16.42114100 rev/d
Perigee alt
152.1 km
Apogee alt
168.3 km
Semi-major
6,538.3 km
B*
4.1500e-4
RAAN
42.9634°
Arg perigee
300.0086°
Mean anomaly
59.9738°
Rev number
30,595

§ Raw data

STARLINK-21591 47745U 21017Z   26247.93542644  .09061136  12516-4  41500-3 0  99942 47745  53.1318  42.9634 0012340 300.0086  59.9738 16.42114100305958

JSON: /api/v1/satellites/47745 · /tle

For live sub-satellite position, see the globe view (requires WebGL).

§ Visibility from observer

Set your observer location to see the next 7 days of passes ≥ 10°. The values pass through the URL so the page stays shareable.

No JS? Fill the form by hand. The geolocation button needs JavaScript.